Location: Trebic
(49.2170°N, 15.8830°E)
Time: 01:17:42
(UTC+01:00)

Transit 4A - Pass Details

Date: 06 November 2020
Orbit: 862 x 982 km, 66.8° (Epoch: 28 November)

Event Time Altitude Azimuth Distance (km) Brightness Sun altitude
Rises 21:20:58 0° 323° (NW) 3,696 11.7 -46.7°
Reaches altitude 10° 21:23:33 10° 324° (NW) 2,742 10.9 -47.0°
Enters shadow 21:24:37 15° 325° (NW) 2,359 10.4 -47.1°
